Other Public Products
Issued by NWS Grand Forks, ND

Home | Current Version | Previous Version | Graphics & Text | Print | Product List | Glossary On
Versions: 1 2 3 4 5 6 7 8 9 10 11 12 13 14 15 16 17 18 19 20 21 22 23 24 25 26 27 28 29 30 31 32 33 34 35 36 37 38 39 40 41 42 43 44 45 46 47 48 49 50
474
FPUS83 KFGF 301631
OPUFGF
PRAIRIE TO PINES WEATHER ROUNDUP
NATIONAL WEATHER SERVICE EASTERN NORTH DAKOTA/GRAND FORKS ND
1100 AM CDT SUN APR 30 2017

 **SATELLITE DATA USED TO AUGMENT SKY COVER AT AUTOMATED STATIONS**
 *****  WEATHER ACROSS EASTERN NORTH DAKOTA  *****

CITY           SKY/WX    TMP DP  RH WIND       PRES   REMARKS
GRAND FORKS    FAIR      55  30  38 SE8       30.10F
GRAND FORKS AF FAIR      54  31  41 S7        30.09F
GRAND CITY NWS NOT AVBL
BUXTON           N/A     55  29  37 E3          N/A
DEVILS LAKE    FAIR      55  28  35 SE8       30.06F
FARGO          FAIR      54  18  24 NE8       30.08F
WAHPETON ARPT  FAIR      50  21  32 NE10      30.06S
$$

 *****  WEATHER ACROSS CENTRAL AND WESTERN NORTH DAKOTA  *****

CITY           SKY/WX    TMP DP  RH WIND       PRES   REMARKS
JAMESTOWN      FAIR      55  27  34 E12       30.05F
BISMARCK       FAIR      57  26  30 CALM      30.03F
MINOT          FAIR      63  20  19 SW10      29.99F
MINOT AFB      FAIR      64  23  21 SW9       29.97F
GARRISON         N/A     53  24  32 S5        30.01F
WILLISTON      FAIR      58  29  33 SW9       29.98F
DICKINSON      FAIR      54  15  21 VRB3      29.98F
HETTINGER      FAIR      55  19  24 CALM      30.00F
$$

 *****  OTHER OBSERVATIONS NORTHEAST NORTH DAKOTA  *****

CITY           SKY/WX    TMP DP  RH WIND       PRES   REMARKS
WALHALLA       NOT AVBL
LANGDON        FAIR      61  25  25 VRB5G13   30.06F
CAVALIER       FAIR      55  30  38 S9        30.07F
GRAFTON        FAIR      55  32  41 SE10      30.10F
CANDO          NOT AVBL
FORT TOTTEN      N/A     58  21  24 S6        29.95S
ROLLA          FAIR      57  23  26 SW10      30.03F
RUGBY          NOT AVBL
 ***** THE ABOVE OBSERVATIONS ARE NON NWS ARE NOT QUALITY
        CONTROLLED AND MAY MIS-REPORT RAIN FOR SNOW...
$$

 *****  OTHER OBSERVATIONS SOUTHEAST NORTH DAKOTA *****

CITY           SKY/WX    TMP DP  RH WIND       PRES   REMARKS
COOPERSTOWN    FAIR      55  27  33 E9        30.07F
VALLEY CITY    FAIR      54  21  28 E8G16     30.08S
OAKES          NOT AVBL
GWINNER        SUNNY     52  27  37 MISG      30.05F
SHEYENNE NWR     N/A     51  24  34 E8        29.95
BUFFALO          N/A     55  19  25 S8          N/A
WYNDMERE         N/A     54  25  32 NE10        N/A
 ***** THE ABOVE OBSERVATIONS ARE NON NWS ARE NOT QUALITY
       CONTROLLED AND MAY MIS-REPORT RAIN FOR SNOW...
$$

  *****  WEATHER ACROSS NORTHERN MINNESOTA  *****

CITY           SKY/WX    TMP DP  RH WIND       PRES   REMARKS
FLAG ISLAND    FAIR      41  28  60 SE7       30.14F
WARROAD        FAIR      52  27  37 E7        30.14F
ROSEAU         FAIR      54  23  30 SE7       30.12F
HALLOCK        FAIR      57  25  28 S10       30.09F
THF RVR FALLS  FAIR      51  22  31 E10       30.13F
HALSTAD          N/A     54  21  27 NE12        N/A
FOSSTON        FAIR      55  21  26 E8        30.10F
BAUDETTE       FAIR      52  19  27 SE8       30.14F
WASKISH        CLOUDY    52  23  32 E12       30.13F
CROOKSTON      FAIR      55  25  30 SE9       30.11F
$$
  *****  WEATHER ACROSS CENTRAL AND WEST MINNESOTA  *****

CITY           SKY/WX    TMP DP  RH WIND       PRES   REMARKS
BEMIDJI        FAIR      48  22  35 E8        30.12F
PARK RAPIDS    FAIR      50  18  28 NE10G17   30.09F
WADENA         FAIR      48  25  40 E13G21    30.07S
DETROIT LAKES  FAIR      50  21  32 NE10      30.08F
MOORHEAD       FAIR      54  19  26 NE8       30.08F
FERGUS FALLS   FAIR      50  19  29 E14       30.05F
ELBOW LAKE     FAIR      49  21  33 NE9G17    30.05F
MORRIS MN      FAIR      50  21  32 E14       30.03S
STAPLES        FAIR      46  19  34 E10       30.09S
WHEATON        FAIR      52  18  25 N14       30.06S
$$
  *****  WEATHER ELSEWHERE ACROSS MINNESOTA  *****

CITY           SKY/WX    TMP DP  RH WIND       PRES   REMARKS
DULUTH         FAIR      45  25  45 E10       30.11F
INTRNTL FALLS  FAIR      50  22  33 E9        30.17F
ELY            FAIR      48  16  27 E10G16    30.14F
CLOQUET        FAIR      43  21  42 E10       30.11R
BRAINERD       FAIR      45  23  42 NE13      30.10R
HIBBING        FAIR      46  21  37 E13G20    30.12F
ALEXANDRIA     FAIR      46  22  38 E17       30.06F
SAINT CLOUD    CLOUDY    41  25  53 NE9       30.06R
MINNEAPOLIS    LGT RAIN  42  32  67 NE9       30.01S
$$

  *****  WEATHER ACROSS SOUTH DAKOTA  *****

CITY           SKY/WX    TMP DP  RH WIND       PRES   REMARKS
SIOUX FALLS    CLOUDY    40  39  97 NE23      29.91F
BROOKINGS      FAIR      42  28  57 NE17      29.96F
WATERTOWN      FAIR      45  26  47 NE18      29.99F
HURON          FAIR      47  29  49 N14       29.98S
SISSETON         N/A     52  24  33 NE12      30.03F
ABERDEEN       FAIR      51  22  31 NE17      30.02F
MITCHELL       FAIR      47  29  49 NE16      29.96S
PIERRE         FAIR      53  24  32 N17       29.99F
MOBRIDGE       FAIR      57  23  26 VRB7      29.98F
RAPID CITY     FAIR      52  23  32 N8        30.00F
$$

  *****  SOME WEATHER IN NEARBY STATES *****

CITY           SKY/WX    TMP DP  RH WIND       PRES   REMARKS
GLASGOW MT     FAIR      55  30  38 S12       29.89F
GREAT FALLS MT FAIR      49  31  49 SW14      29.93F
CHEYENNE WY    FAIR      41  16  36 N30G40    29.96F
SCOTTSBLUFF NE FAIR      47  24  40 N18       30.00S
OMAHA NE       CLOUDY    41  36  82 NE22G36   29.68F
DES MOINES IA  DRIZZLE   43  41  93 NE21      29.75F
DAVENPORT IA   CLOUDY    44  43  96 NE15      29.83F FOG
CHICAGO IL     CLOUDY    45  43  93 N10       29.82R FOG
EAU CLAIRE WI  CLOUDY    46  32  58 NE16      29.99F
LA CROSSE WI   CLOUDY    45  36  70 E9        29.97R
$$

  *****  SOME NATIONAL WEATHER *****

CITY           SKY/WX    TMP DP  RH WIND       PRES   REMARKS
LA GUARDIA NY  PTSUNNY   65  42  43 NE9       30.23S
RALEIGH NC     PTSUNNY   80  67  64 S14       30.19F
ATLANTA GA     CLOUDY    73  67  81 S8        30.14R
NEW ORLEANS LA TSTM      69  69 100 S13G32    29.99R VSB 1/2
OKLAHOMA CITY  PTSUNNY   46  38  73 SW22G33   29.58F
ALBUQUERQUE NM FAIR      44  31  60 N7        30.10R
SALT LAKE CITY CLOUDY    51  30  44 SE13      30.18F
LOS ANGELES CA FAIR      73  29  19 E7        30.08R
BOISE ID       CLOUDY    50  33  52 SW5       30.14F
SEATTLE WA     CLOUDY    48  42  80 SW9       30.23R
$$

*** WEATHER ACROSS MANITOBA...SASKATCHEWAN AND ONTARIO ***
                ***ONTARIO***

CITY           SKY/WX    TMP DP  RH WIND       PRES   REMARKS
GERALDTON      PTSUNNY   46  14  27 E2        30.23F
THUNDER BAY    CLOUDY    45  28  53 E9        30.23S
SIOUX LOOKOUT  CLOUDY    46  16  29 SW6       30.20R
TORONTO        CLOUDY    41  30  65 E18G29    30.16F
BIG TROUT LK   MOSUNNY   50  21  32 S8        30.09F
PICKLE LAKE    PTSUNNY   50  18  27 SE13      30.18F
DRYDEN         CLOUDY    46  18  31 SE10      30.18S
KENORA         PTSUNNY   46  21  36 S10       30.15F
$$
                *** MANITOBA***

CITY           SKY/WX    TMP DP  RH WIND       PRES   REMARKS
BRANDON        MOSUNNY   57  30  35 SW9       30.00F
DAUPHIN        MOSUNNY   54  34  47 NW5       29.99F
ISLAND LAKE    MOSUNNY   48  27  43 NW7       30.03F
PILOT MOUND      N/A     61  21  21 SW14        N/A
THE PAS        MOSUNNY   45  34  65 N5        30.00F
THOMPSON       MOSUNNY   48  23  37 VRB6      30.04F
WINNIPEG       MOSUNNY   61  27  27 S12G21    30.07F
LYNN LAKE      SUNNY     46  21  36 S10       30.00F
CHURCHILL      MOSUNNY   41  27  56 SW15      30.01F
GILLAM         MOSUNNY   45  21  39 NE6       30.07F
$$
                ***SASKATCHEWAN***

CITY           SKY/WX    TMP DP  RH WIND       PRES   REMARKS
ESTEVAN        MOSUNNY   57  28  33 SW14G22   29.95F
KINDERSLEY     PTSUNNY   46  37  71 S8        29.79S
LLOYDMINSTER   PTSUNNY   46  39  76 E13       29.81F
PRINCE ALBERT  PTSUNNY   52  37  58 E12       29.91F
REGINA         CLOUDY    54  39  58 SE8       29.89F
YORKTON        SUNNY     55  36  47 S9        29.92F



USA.gov is the U.S. government's official web portal to all federal, state and local government web resources and services.